Tracking 30074 objects as of 13-Jan-2025
HD Live streaming from Space Station
objects crossing your sky now

INSAT 3A

Track INSAT 3A now!
INSAT 3A is classified as:


NORAD ID: 27714
Int'l Code: 2003-013A
Perigee: 35,887.4 km
Apogee: 35,963.0 km
Inclination: 7.6 °
Period: 1,442.8 minutes
Semi major axis: 42296 km
RCS: 22.0529 m2 (large)
Launch date: April 9, 2003
Source: India (IND)
Launch site: FRENCH GUIANA (FRGUI)

12 C-band, 6 extended C-band, 6 Ku-band for voice, video and data transmission to West Asia, East Asia, India; augment present INSAT capacity for communication and meteorological services.
Your satellite tracking list
Your tracking list is empty




NASA's NSSDC Master Catalog

Two Line Element Set (TLE):
1 27714U 03013A   25012.83756007 -.00000336  00000-0  00000-0 0  9997
2 27714   7.5703  66.5915 0008937 279.5130 186.6377  0.99804741 79535
Source of the keplerian elements: AFSPC